| time (UTC) | temp C | wind direction | speed KPH | gust KPH | rain 1hr cm | rain 24hr cm | rain mn cm | humidity % | barometer mb |
| 20260506200009 | 21 | 224 | 0.0 | 0.0 | 0.00 | 0.00 | 0.00 | 48 | 1018.1 |
| 20260506195507 | 22 | 261 | 4.8 | 6.4 | 0.00 | 0.00 | 0.00 | 47 | 1018.4 |
| 20260506195002 | 22 | 49 | 4.8 | 6.4 | 0.00 | 0.00 | 0.00 | 46 | 1018.3 |
| 20260506194500 | 22 | 21 | 3.2 | 3.2 | 0.00 | 0.00 | 0.00 | 46 | 1018.2 |
| 20260506193956 | 22 | 5 | 3.2 | 3.2 | 0.00 | 0.00 | 0.00 | 46 | 1018.6 |
| 20260506193454 | 22 | 290 | 1.6 | 1.6 | 0.00 | 0.00 | 0.00 | 47 | 1018.5 |
| 20260506192950 | 22 | 264 | 1.6 | 3.2 | 0.00 | 0.00 | 0.00 | 48 | 1018.7 |
| 20260506192448 | 22 | 281 | 3.2 | 6.4 | 0.00 | 0.00 | 0.00 | 45 | 1018.3 |
| 20260506191944 | 21 | 128 | 0.0 | 1.6 | 0.00 | 0.00 | 0.00 | 48 | 1018.7 |
| 20260506191440 | 21 | 280 | 8.0 | 9.7 | 0.00 | 0.00 | 0.00 | 49 | 1018.7 |
| 20260506190937 | 21 | 47 | 1.6 | 3.2 | 0.00 | 0.00 | 0.00 | 50 | 1018.8 |
| 20260506190434 | 20 | 230 | 3.2 | 3.2 | 0.00 | 0.00 | 0.00 | 51 | 1018.8 |
| 20260506185931 | 21 | 255 | 1.6 | 6.4 | 0.00 | 0.00 | 0.00 | 50 | 1018.7 |
| 20260506185428 | 20 | 239 | 6.4 | 8.0 | 0.00 | 0.00 | 0.00 | 52 | 1018.8 |
| 20260506184925 | 21 | 239 | 4.8 | 6.4 | 0.00 | 0.00 | 0.00 | 51 | 1019.0 |
| 20260506184422 | 21 | 278 | 4.8 | 6.4 | 0.00 | 0.00 | 0.00 | 52 | 1018.9 |
| 20260506183919 | 21 | 33 | 0.0 | 0.0 | 0.00 | 0.00 | 0.00 | 49 | 1018.8 |
| 20260506183414 | 20 | 275 | 3.2 | 3.2 | 0.00 | 0.00 | 0.00 | 51 | 1019.1 |
| 20260506182912 | 20 | 22 | 1.6 | 1.6 | 0.00 | 0.00 | 0.00 | 49 | 1019.1 |
| 20260506182409 | 20 | 248 | 1.6 | 1.6 | 0.00 | 0.00 | 0.00 | 53 | 1019.0 |
| 20260506181906 | 20 | 243 | 1.6 | 1.6 | 0.00 | 0.00 | 0.00 | 55 | 1019.1 |
| 20260506181404 | 20 | 276 | 3.2 | 6.4 | 0.00 | 0.00 | 0.00 | 56 | 1019.1 |
| 20260506180901 | 20 | 297 | 4.8 | 6.4 | 0.00 | 0.00 | 0.00 | 57 | 1018.9 |
| 20260506180357 | 20 | 310 | 3.2 | 3.2 | 0.00 | 0.00 | 0.00 | 55 | 1018.9 |
| 20260506175854 | 20 | 342 | 0.0 | 1.6 | 0.00 | 0.00 | 0.00 | 58 | 1019.1 |
| 20260506175350 | 18 | 261 | 1.6 | 3.2 | 0.00 | 0.00 | 0.00 | 59 | 1019.1 |
| 20260506174847 | 18 | 261 | 4.8 | 6.4 | 0.00 | 0.00 | 0.00 | 60 | 1019.2 |
| 20260506174345 | 18 | 228 | 1.6 | 3.2 | 0.00 | 0.00 | 0.00 | 60 | 1019.1 |
| 20260506173842 | 19 | 239 | 1.6 | 1.6 | 0.00 | 0.00 | 0.00 | 60 | 1019.3 |
| 20260506173339 | 18 | 63 | 1.6 | 1.6 | 0.00 | 0.00 | 0.00 | 61 | 1019.2 |
| 20260506172836 | 19 | 279 | 3.2 | 3.2 | 0.00 | 0.00 | 0.00 | 61 | 1019.0 |
| 20260506172333 | 18 | 2 | 0.0 | 1.6 | 0.00 | 0.00 | 0.00 | 61 | 1019.2 |
| 20260506171830 | 18 | 244 | 3.2 | 3.2 | 0.00 | 0.00 | 0.00 | 64 | 1019.2 |
| 20260506171327 | 17 | 274 | 3.2 | 3.2 | 0.00 | 0.00 | 0.00 | 67 | 1019.2 |
| 20260506170825 | 17 | 257 | 4.8 | 6.4 | 0.00 | 0.00 | 0.00 | 67 | 1019.2 |
| 20260506170320 | 17 | 321 | 3.2 | 3.2 | 0.00 | 0.00 | 0.00 | 67 | 1019.3 |
| 20260506165820 | 17 | 271 | 3.2 | 6.4 | 0.00 | 0.00 | 0.00 | 68 | 1019.3 |
| 20260506165317 | 17 | 26 | 0.0 | 1.6 | 0.00 | 0.00 | 0.00 | 68 | 1019.2 |
| 20260506164813 | 17 | 343 | 0.0 | 0.0 | 0.00 | 0.00 | 0.00 | 68 | 1019.2 |
| 20260506164310 | 17 | 266 | 1.6 | 1.6 | 0.00 | 0.00 | 0.00 | 68 | 1019.4 |
| 20260506163807 | 16 | 279 | 1.6 | 3.2 | 0.00 | 0.00 | 0.00 | 70 | 1019.4 |
| 20260506163302 | 16 | 0 | 0.0 | 0.0 | 0.00 | 0.00 | 0.00 | 71 | 1019.4 |
| 20260506162758 | 16 | 244 | 1.6 | 1.6 | 0.00 | 0.00 | 0.00 | 72 | 1019.3 |
| 20260506162256 | 16 | 258 | 1.6 | 1.6 | 0.00 | 0.00 | 0.00 | 71 | 1019.4 |
| 20260506161753 | 15 | 284 | 3.2 | 3.2 | 0.00 | 0.00 | 0.00 | 73 | 1019.5 |
| 20260506161250 | 16 | 342 | 1.6 | 1.6 | 0.00 | 0.00 | 0.00 | 73 | 1019.5 |
| 20260506160748 | 15 | 43 | 0.0 | 1.6 | 0.00 | 0.00 | 0.00 | 75 | 1019.5 |
| 20260506160244 | 15 | 234 | 1.6 | 1.6 | 0.00 | 0.00 | 0.00 | 75 | 1019.6 |
| 20260506155743 | 15 | 291 | 3.2 | 3.2 | 0.00 | 0.00 | 0.00 | 76 | 1019.6 |
| 20260506155239 | 15 | 134 | 1.6 | 1.6 | 0.00 | 0.00 | 0.00 | 76 | 1019.4 |
| 20260506153347 | 13 | 259 | 4.8 | 6.4 | 0.00 | 0.00 | 0.00 | 79 | 1019.7 |
| 20260506152843 | 13 | 280 | 3.2 | 3.2 | 0.00 | 0.00 | 0.00 | 79 | 1019.6 |
| 20260506152341 | 13 | 255 | 3.2 | 3.2 | 0.00 | 0.00 | 0.00 | 79 | 1019.4 |
| 20260506151839 | 13 | 269 | 4.8 | 8.0 | 0.00 | 0.00 | 0.00 | 79 | 1019.6 |
| 20260506151335 | 13 | 358 | 0.0 | 0.0 | 0.00 | 0.00 | 0.00 | 81 | 1019.5 |
| 20260506150833 | 13 | 35 | 0.0 | 0.0 | 0.00 | 0.00 | 0.00 | 81 | 1019.4 |
| 20260506150329 | 12 | 290 | 1.6 | 1.6 | 0.00 | 0.00 | 0.00 | 81 | 1019.5 |
| 20260506145826 | 12 | 269 | 1.6 | 1.6 | 0.00 | 0.00 | 0.00 | 82 | 1019.7 |
| 20260506145322 | 12 | 267 | 4.8 | 6.4 | 0.00 | 0.00 | 0.00 | 83 | 1019.5 |
| 20260506144820 | 12 | 256 | 3.2 | 3.2 | 0.00 | 0.00 | 0.00 | 83 | 1019.5 |
| 20260506144317 | 12 | 350 | 0.0 | 0.0 | 0.00 | 0.00 | 0.00 | 84 | 1019.6 |
| 20260506143815 | 12 | 273 | 3.2 | 3.2 | 0.00 | 0.00 | 0.00 | 85 | 1019.4 |
| 20260506143312 | 11 | 278 | 0.0 | 0.0 | 0.00 | 0.00 | 0.00 | 86 | 1019.4 |
| 20260506142810 | 11 | 236 | 1.6 | 3.2 | 0.00 | 0.00 | 0.00 | 86 | 1019.4 |
| 20260506142308 | 11 | 273 | 0.0 | 1.6 | 0.00 | 0.00 | 0.00 | 86 | 1019.2 |
| 20260506141806 | 11 | 328 | 0.0 | 0.0 | 0.00 | 0.00 | 0.00 | 87 | 1019.2 |
| 20260506141303 | 11 | 18 | 0.0 | 0.0 | 0.00 | 0.00 | 0.00 | 88 | 1019.2 |
| 20260506140801 | 11 | 17 | 0.0 | 0.0 | 0.00 | 0.00 | 0.00 | 88 | 1019.3 |
| 20260506140258 | 11 | 20 | 0.0 | 0.0 | 0.00 | 0.00 | 0.00 | 88 | 1019.1 |
| 20260506135755 | 11 | 356 | 0.0 | 0.0 | 0.00 | 0.00 | 0.00 | 88 | 1019.0 |
| 20260506135251 | 10 | 292 | 0.0 | 0.0 | 0.00 | 0.00 | 0.00 | 88 | 1018.9 |
| 20260506134748 | 10 | 286 | 1.6 | 1.6 | 0.00 | 0.00 | 0.00 | 88 | 1019.1 |
| 20260506134244 | 10 | 8 | 0.0 | 0.0 | 0.00 | 0.00 | 0.00 | 88 | 1018.9 |
| 20260506133741 | 10 | 2 | 0.0 | 0.0 | 0.00 | 0.00 | 0.00 | 88 | 1018.9 |
| 20260506133238 | 10 | 313 | 0.0 | 0.0 | 0.00 | 0.00 | 0.00 | 88 | 1018.6 |
| 20260506132735 | 10 | 274 | 0.0 | 0.0 | 0.00 | 0.00 | 0.00 | 88 | 1018.9 |
| 20260506132232 | 10 | 284 | 0.0 | 0.0 | 0.00 | 0.00 | 0.00 | 88 | 1018.7 |
| 20260506131730 | 10 | 284 | 0.0 | 0.0 | 0.00 | 0.00 | 0.00 | 88 | 1018.8 |
| 20260506131226 | 10 | 284 | 0.0 | 0.0 | 0.00 | 0.00 | 0.00 | 88 | 1018.5 |
| 20260506130723 | 10 | 284 | 0.0 | 0.0 | 0.00 | 0.00 | 0.00 | 88 | 1018.5 |
| 20260506130220 | 10 | 281 | 0.0 | 0.0 | 0.00 | 0.00 | 0.00 | 88 | 1018.5 |
| 20260506125718 | 10 | 275 | 1.6 | 1.6 | 0.00 | 0.00 | 0.00 | 88 | 1018.3 |
| 20260506125215 | 10 | 293 | 0.0 | 0.0 | 0.00 | 0.00 | 0.00 | 88 | 1018.2 |
| 20260506124713 | 10 | 281 | 1.6 | 1.6 | 0.00 | 0.00 | 0.00 | 88 | 1018.3 |
| 20260506124211 | 10 | 295 | 1.6 | 1.6 | 0.00 | 0.00 | 0.00 | 88 | 1018.3 |
| 20260506123708 | 10 | 26 | 0.0 | 0.0 | 0.00 | 0.00 | 0.00 | 88 | 1018.3 |
| 20260506123207 | 10 | 26 | 0.0 | 0.0 | 0.00 | 0.00 | 0.00 | 88 | 1018.2 |
| 20260506122703 | 10 | 26 | 0.0 | 0.0 | 0.00 | 0.00 | 0.00 | 88 | 1018.2 |
| 20260506122201 | 10 | 26 | 0.0 | 0.0 | 0.00 | 0.00 | 0.00 | 88 | 1018.2 |
| 20260506121658 | 10 | 26 | 0.0 | 0.0 | 0.00 | 0.00 | 0.00 | 88 | 1018.2 |
| 20260506121154 | 10 | 26 | 0.0 | 0.0 | 0.00 | 0.00 | 0.00 | 88 | 1018.1 |
| 20260506120653 | 10 | 26 | 0.0 | 0.0 | 0.00 | 0.00 | 0.00 | 88 | 1018.0 |
| 20260506120150 | 10 | 26 | 0.0 | 0.0 | 0.00 | 0.00 | 0.00 | 88 | 1018.1 |
| 20260506115648 | 10 | 26 | 0.0 | 0.0 | 0.00 | 0.00 | 0.00 | 87 | 1018.2 |
| 20260506115146 | 10 | 26 | 0.0 | 0.0 | 0.00 | 0.00 | 0.00 | 87 | 1018.1 |
| 20260506114643 | 10 | 26 | 0.0 | 0.0 | 0.00 | 0.00 | 0.00 | 87 | 1018.1 |
| 20260506114141 | 10 | 26 | 0.0 | 0.0 | 0.00 | 0.00 | 0.00 | 87 | 1018.1 |
| 20260506113639 | 10 | 25 | 0.0 | 0.0 | 0.00 | 0.00 | 0.00 | 87 | 1018.0 |
| 20260506113136 | 10 | 25 | 0.0 | 0.0 | 0.00 | 0.00 | 0.00 | 87 | 1018.0 |
| 20260506112632 | 10 | 26 | 0.0 | 0.0 | 0.00 | 0.00 | 0.00 | 87 | 1017.9 |
| 20260506112130 | 10 | 26 | 0.0 | 0.0 | 0.00 | 0.00 | 0.00 | 87 | 1017.7 |
| 20260506111627 | 10 | 25 | 0.0 | 0.0 | 0.00 | 0.00 | 0.00 | 87 | 1017.7 |
| 20260506111125 | 10 | 25 | 0.0 | 0.0 | 0.00 | 0.00 | 0.00 | 87 | 1017.8 |
| 20260506110622 | 11 | 25 | 0.0 | 0.0 | 0.00 | 0.00 | 0.00 | 87 | 1017.8 |
| 20260506110119 | 11 | 27 | 0.0 | 0.0 | 0.00 | 0.00 | 0.00 | 87 | 1017.9 |
| 20260506105616 | 11 | 12 | 0.0 | 0.0 | 0.00 | 0.00 | 0.00 | 87 | 1017.9 |
| 20260506105113 | 11 | 4 | 0.0 | 0.0 | 0.00 | 0.00 | 0.00 | 86 | 1017.6 |
| 20260506104611 | 11 | 4 | 0.0 | 0.0 | 0.00 | 0.00 | 0.00 | 86 | 1017.6 |
| 20260506104108 | 11 | 4 | 0.0 | 0.0 | 0.00 | 0.00 | 0.00 | 86 | 1017.6 |
| 20260506103605 | 11 | 3 | 0.0 | 0.0 | 0.00 | 0.00 | 0.00 | 86 | 1017.7 |
| 20260506103102 | 11 | 3 | 0.0 | 0.0 | 0.00 | 0.00 | 0.00 | 86 | 1017.7 |
| 20260506102600 | 11 | 3 | 0.0 | 0.0 | 0.00 | 0.00 | 0.00 | 86 | 1017.7 |
| 20260506102057 | 11 | 3 | 0.0 | 0.0 | 0.00 | 0.00 | 0.00 | 86 | 1017.9 |
| 20260506101554 | 11 | 3 | 0.0 | 0.0 | 0.00 | 0.00 | 0.00 | 85 | 1017.6 |
| 20260506101051 | 11 | 3 | 0.0 | 0.0 | 0.00 | 0.00 | 0.00 | 85 | 1017.5 |
| 20260506100549 | 11 | 11 | 0.0 | 0.0 | 0.00 | 0.00 | 0.00 | 85 | 1017.6 |
| 20260506100047 | 11 | 11 | 0.0 | 0.0 | 0.00 | 0.00 | 0.00 | 85 | 1017.5 |
| 20260506095546 | 11 | 10 | 0.0 | 0.0 | 0.00 | 0.00 | 0.00 | 85 | 1017.5 |
| 20260506095042 | 11 | 10 | 0.0 | 0.0 | 0.00 | 0.00 | 0.00 | 84 | 1017.5 |
| 20260506094539 | 12 | 7 | 0.0 | 0.0 | 0.00 | 0.00 | 0.00 | 84 | 1017.4 |
| 20260506094037 | 12 | 336 | 0.0 | 0.0 | 0.00 | 0.00 | 0.00 | 84 | 1017.3 |
| 20260506093535 | 12 | 266 | 0.0 | 0.0 | 0.00 | 0.00 | 0.00 | 84 | 1017.3 |
| 20260506093032 | 12 | 266 | 0.0 | 0.0 | 0.00 | 0.00 | 0.00 | 84 | 1017.4 |
| 20260506092530 | 12 | 251 | 0.0 | 0.0 | 0.00 | 0.00 | 0.00 | 84 | 1017.4 |
| 20260506092027 | 12 | 259 | 0.0 | 0.0 | 0.00 | 0.00 | 0.00 | 84 | 1017.2 |
| 20260506091525 | 12 | 269 | 0.0 | 1.6 | 0.00 | 0.00 | 0.00 | 84 | 1017.2 |
| 20260506091022 | 12 | 244 | 1.6 | 1.6 | 0.00 | 0.00 | 0.00 | 85 | 1017.1 |
| 20260506090520 | 12 | 252 | 0.0 | 0.0 | 0.00 | 0.00 | 0.00 | 85 | 1017.2 |
| 20260506090016 | 11 | 310 | 0.0 | 0.0 | 0.00 | 0.00 | 0.00 | 84 | 1017.5 |
| 20260506085513 | 12 | 309 | 0.0 | 0.0 | 0.00 | 0.00 | 0.00 | 84 | 1017.5 |
| 20260506085009 | 12 | 16 | 0.0 | 0.0 | 0.00 | 0.00 | 0.00 | 84 | 1017.6 |
| 20260506084506 | 11 | 7 | 0.0 | 0.0 | 0.00 | 0.00 | 0.00 | 83 | 1017.7 |
| 20260506084002 | 11 | 7 | 0.0 | 0.0 | 0.00 | 0.00 | 0.00 | 83 | 1017.6 |
| 20260506083500 | 12 | 7 | 0.0 | 0.0 | 0.00 | 0.00 | 0.00 | 83 | 1017.5 |
| 20260506082957 | 12 | 7 | 0.0 | 0.0 | 0.00 | 0.00 | 0.00 | 82 | 1017.5 |
| 20260506082454 | 12 | 20 | 0.0 | 0.0 | 0.00 | 0.00 | 0.00 | 82 | 1017.5 |
| 20260506081949 | 12 | 21 | 0.0 | 0.0 | 0.00 | 0.00 | 0.00 | 82 | 1017.3 |
| 20260506081448 | 12 | 20 | 0.0 | 0.0 | 0.00 | 0.00 | 0.00 | 82 | 1017.6 |
| 20260506080945 | 12 | 20 | 0.0 | 0.0 | 0.00 | 0.00 | 0.00 | 81 | 1017.4 |
| 20260506080442 | 12 | 20 | 0.0 | 0.0 | 0.00 | 0.00 | 0.00 | 81 | 1017.6 |
| 20260506073426 | 12 | 276 | 0.0 | 0.0 | 0.00 | 0.00 | 0.00 | 80 | 1017.2 |
| 20260506072923 | 13 | 275 | 0.0 | 0.0 | 0.00 | 0.00 | 0.00 | 80 | 1017.1 |
| 20260506072420 | 13 | 338 | 1.6 | 1.6 | 0.00 | 0.00 | 0.00 | 80 | 1017.2 |
| 20260506071918 | 12 | 34 | 0.0 | 0.0 | 0.00 | 0.00 | 0.00 | 80 | 1016.9 |
| 20260506071416 | 12 | 27 | 0.0 | 0.0 | 0.00 | 0.00 | 0.00 | 79 | 1017.1 |
| 20260506070912 | 12 | 29 | 0.0 | 0.0 | 0.00 | 0.00 | 0.00 | 79 | 1017.1 |
| 20260506070409 | 13 | 29 | 0.0 | 0.0 | 0.00 | 0.00 | 0.00 | 79 | 1017.0 |
| 20260506062347 | 13 | 28 | 0.0 | 0.0 | 0.00 | 0.00 | 0.00 | 78 | 1016.4 |
| 20260506061842 | 13 | 28 | 0.0 | 0.0 | 0.00 | 0.00 | 0.00 | 78 | 1016.5 |
| 20260506061339 | 13 | 28 | 0.0 | 0.0 | 0.00 | 0.00 | 0.00 | 78 | 1016.7 |
| 20260506060837 | 13 | 119 | 0.0 | 0.0 | 0.00 | 0.00 | 0.00 | 78 | 1016.3 |
| 20260506060335 | 13 | 119 | 0.0 | 0.0 | 0.00 | 0.00 | 0.00 | 77 | 1016.3 |
| 20260506051307 | 15 | 309 | 0.0 | 0.0 | 0.00 | 0.00 | 0.00 | 74 | 1016.0 |
| 20260506050805 | 15 | 351 | 0.0 | 0.0 | 0.00 | 0.00 | 0.00 | 73 | 1015.9 |
| 20260506050302 | 15 | 254 | 0.0 | 0.0 | 0.00 | 0.00 | 0.00 | 73 | 1016.1 |
| 20260506044752 | 15 | 8 | 0.0 | 0.0 | 0.00 | 0.00 | 0.00 | 72 | 1015.9 |
| 20260506044250 | 15 | 30 | 0.0 | 0.0 | 0.00 | 0.00 | 0.00 | 72 | 1015.8 |
| 20260506043747 | 15 | 295 | 0.0 | 0.0 | 0.00 | 0.00 | 0.00 | 72 | 1015.7 |
| 20260506043244 | 15 | 274 | 1.6 | 1.6 | 0.00 | 0.00 | 0.00 | 71 | 1015.7 |
| 20260506042743 | 15 | 287 | 1.6 | 1.6 | 0.00 | 0.00 | 0.00 | 72 | 1015.5 |
| 20260506042241 | 15 | 58 | 0.0 | 0.0 | 0.00 | 0.00 | 0.00 | 73 | 1015.7 |
| 20260506041739 | 15 | 59 | 0.0 | 0.0 | 0.00 | 0.00 | 0.00 | 72 | 1015.7 |
| 20260506041236 | 15 | 59 | 0.0 | 0.0 | 0.00 | 0.00 | 0.00 | 71 | 1015.2 |
| 20260506040733 | 15 | 59 | 0.0 | 0.0 | 0.00 | 0.00 | 0.00 | 71 | 1015.3 |
| 20260506040230 | 15 | 59 | 0.0 | 0.0 | 0.00 | 0.00 | 0.00 | 70 | 1015.1 |
| 20260506035727 | 15 | 59 | 0.0 | 0.0 | 0.00 | 0.00 | 0.00 | 69 | 1015.2 |
| 20260506035224 | 15 | 59 | 0.0 | 0.0 | 0.00 | 0.00 | 0.00 | 68 | 1015.2 |
| 20260506034721 | 15 | 59 | 0.0 | 0.0 | 0.00 | 0.00 | 0.00 | 68 | 1015.0 |
| 20260506034218 | 15 | 59 | 0.0 | 0.0 | 0.00 | 0.00 | 0.00 | 67 | 1014.9 |
| 20260506033715 | 15 | 59 | 0.0 | 0.0 | 0.00 | 0.00 | 0.00 | 66 | 1014.7 |
| 20260506033212 | 15 | 60 | 0.0 | 0.0 | 0.00 | 0.00 | 0.00 | 65 | 1014.8 |
| 20260506032709 | 16 | 60 | 0.0 | 0.0 | 0.00 | 0.00 | 0.00 | 65 | 1014.8 |
| 20260506032206 | 16 | 60 | 0.0 | 0.0 | 0.00 | 0.00 | 0.00 | 64 | 1014.6 |
| 20260506031703 | 16 | 60 | 0.0 | 0.0 | 0.00 | 0.00 | 0.00 | 63 | 1014.5 |
| 20260506031200 | 16 | 57 | 0.0 | 1.6 | 0.00 | 0.00 | 0.00 | 62 | 1014.4 |
| 20260506030658 | 16 | 63 | 1.6 | 1.6 | 0.00 | 0.00 | 0.00 | 62 | 1014.3 |
| 20260506030155 | 16 | 53 | 0.0 | 0.0 | 0.00 | 0.00 | 0.00 | 61 | 1014.5 |
| 20260506025646 | 17 | 86 | 1.6 | 1.6 | 0.00 | 0.00 | 0.00 | 60 | 1014.3 |
| 20260506025142 | 17 | 23 | 0.0 | 0.0 | 0.00 | 0.00 | 0.00 | 59 | 1014.4 |
| 20260506024640 | 17 | 38 | 1.6 | 1.6 | 0.00 | 0.00 | 0.00 | 59 | 1014.2 |
| 20260506024136 | 17 | 358 | 0.0 | 0.0 | 0.00 | 0.00 | 0.00 | 59 | 1014.3 |
| 20260506023633 | 17 | 54 | 3.2 | 3.2 | 0.00 | 0.00 | 0.00 | 59 | 1014.0 |
| 20260506023130 | 17 | 17 | 0.0 | 0.0 | 0.00 | 0.00 | 0.00 | 58 | 1014.1 |
| 20260506022627 | 17 | 329 | 0.0 | 0.0 | 0.00 | 0.00 | 0.00 | 57 | 1014.1 |
| 20260506022125 | 18 | 329 | 1.6 | 1.6 | 0.00 | 0.00 | 0.00 | 55 | 1013.9 |
| 20260506021622 | 18 | 28 | 1.6 | 1.6 | 0.00 | 0.00 | 0.00 | 54 | 1013.9 |
| 20260506021119 | 18 | 43 | 0.0 | 0.0 | 0.00 | 0.00 | 0.00 | 53 | 1013.9 |
| 20260506020616 | 18 | 43 | 0.0 | 0.0 | 0.00 | 0.00 | 0.00 | 52 | 1013.9 |
| 20260506020114 | 18 | 52 | 0.0 | 1.6 | 0.00 | 0.00 | 0.00 | 51 | 1013.9 |
| 20260506015611 | 19 | 58 | 1.6 | 1.6 | 0.00 | 0.00 | 0.00 | 50 | 1013.8 |
| 20260506015108 | 20 | 342 | 1.6 | 1.6 | 0.00 | 0.00 | 0.00 | 50 | 1013.6 |
| 20260506014606 | 19 | 11 | 0.0 | 0.0 | 0.00 | 0.00 | 0.00 | 49 | 1013.9 |
| 20260506014101 | 19 | 327 | 1.6 | 1.6 | 0.00 | 0.00 | 0.00 | 50 | 1013.8 |
| 20260506013559 | 19 | 9 | 1.6 | 1.6 | 0.00 | 0.00 | 0.00 | 50 | 1013.7 |
| 20260506013056 | 19 | 75 | 1.6 | 3.2 | 0.00 | 0.00 | 0.00 | 50 | 1013.7 |
| 20260506012552 | 19 | 150 | 1.6 | 1.6 | 0.00 | 0.00 | 0.00 | 49 | 1013.6 |
| 20260506012049 | 19 | 18 | 6.4 | 8.0 | 0.00 | 0.00 | 0.00 | 49 | 1013.9 |
| 20260506011547 | 19 | 62 | 3.2 | 3.2 | 0.00 | 0.00 | 0.00 | 49 | 1013.8 |
| 20260506011043 | 19 | 248 | 1.6 | 1.6 | 0.00 | 0.00 | 0.00 | 48 | 1013.9 |
| 20260506010542 | 19 | 300 | 1.6 | 1.6 | 0.00 | 0.00 | 0.00 | 49 | 1013.8 |
| 20260506010038 | 19 | 281 | 1.6 | 1.6 | 0.00 | 0.00 | 0.00 | 48 | 1013.7 |
| 20260506005535 | 19 | 34 | 1.6 | 1.6 | 0.00 | 0.00 | 0.00 | 49 | 1013.9 |
| 20260506005031 | 19 | 66 | 1.6 | 3.2 | 0.00 | 0.00 | 0.00 | 48 | 1013.9 |
| 20260506004529 | 19 | 53 | 1.6 | 1.6 | 0.00 | 0.00 | 0.00 | 49 | 1013.9 |
| 20260506004025 | 20 | 234 | 1.6 | 3.2 | 0.00 | 0.00 | 0.00 | 49 | 1013.8 |
| 20260506003522 | 20 | 270 | 1.6 | 1.6 | 0.00 | 0.00 | 0.00 | 49 | 1013.6 |
| 20260506003018 | 19 | 24 | 0.0 | 0.0 | 0.00 | 0.00 | 0.00 | 48 | 1013.7 |
| 20260506002514 | 20 | 229 | 4.8 | 6.4 | 0.00 | 0.00 | 0.00 | 47 | 1013.8 |
| 20260506002010 | 20 | 288 | 1.6 | 1.6 | 0.00 | 0.00 | 0.00 | 45 | 1014.0 |
| 20260506001506 | 20 | 307 | 4.8 | 6.4 | 0.00 | 0.00 | 0.00 | 45 | 1013.6 |
| 20260506001004 | 20 | 45 | 1.6 | 1.6 | 0.00 | 0.00 | 0.00 | 46 | 1013.6 |
| 20260506000501 | 20 | 232 | 0.0 | 0.0 | 0.00 | 0.00 | 0.00 | 46 | 1013.7 |
| 20260505235958 | 21 | 257 | 6.4 | 8.0 | 0.00 | 0.00 | 0.00 | 45 | 1013.9 |
| 20260505235456 | 20 | 248 | 1.6 | 1.6 | 0.00 | 0.00 | 0.00 | 45 | 1013.8 |
| 20260505234953 | 20 | 35 | 0.0 | 0.0 | 0.00 | 0.00 | 0.00 | 45 | 1013.9 |
| 20260505234450 | 21 | 281 | 1.6 | 3.2 | 0.00 | 0.00 | 0.00 | 46 | 1013.7 |
| 20260505233947 | 20 | 24 | 1.6 | 1.6 | 0.00 | 0.00 | 0.00 | 45 | 1013.8 |
| 20260505233444 | 21 | 292 | 11.3 | 11.3 | 0.00 | 0.00 | 0.00 | 44 | 1013.9 |
| 20260505232942 | 20 | 143 | 0.0 | 1.6 | 0.00 | 0.00 | 0.00 | 47 | 1013.9 |
| 20260505232440 | 20 | 271 | 4.8 | 8.0 | 0.00 | 0.00 | 0.00 | 48 | 1013.8 |
| 20260505231936 | 20 | 290 | 9.7 | 11.3 | 0.00 | 0.00 | 0.00 | 46 | 1013.9 |
| 20260505231433 | 20 | 259 | 4.8 | 8.0 | 0.00 | 0.00 | 0.00 | 45 | 1013.9 |
| 20260505230932 | 21 | 31 | 3.2 | 6.4 | 0.00 | 0.00 | 0.00 | 44 | 1013.7 |
| 20260505230429 | 21 | 263 | 3.2 | 6.4 | 0.00 | 0.00 | 0.00 | 42 | 1014.0 |
| 20260505225925 | 20 | 280 | 6.4 | 8.0 | 0.00 | 0.00 | 0.00 | 47 | 1014.0 |
| 20260505225423 | 19 | 29 | 3.2 | 3.2 | 0.00 | 0.00 | 0.00 | 48 | 1014.0 |
| 20260505224918 | 20 | 255 | 8.0 | 9.7 | 0.00 | 0.00 | 0.00 | 47 | 1013.8 |
| 20260505224416 | 20 | 303 | 3.2 | 3.2 | 0.00 | 0.00 | 0.00 | 45 | 1013.9 |
| 20260505223912 | 20 | 271 | 8.0 | 9.7 | 0.00 | 0.00 | 0.00 | 44 | 1013.8 |
| 20260505223409 | 21 | 261 | 8.0 | 11.3 | 0.00 | 0.00 | 0.00 | 45 | 1014.1 |
| 20260505222905 | 21 | 261 | 4.8 | 6.4 | 0.00 | 0.00 | 0.00 | 45 | 1014.1 |
| 20260505222402 | 20 | 276 | 3.2 | 6.4 | 0.00 | 0.00 | 0.00 | 46 | 1014.0 |
| 20260505221858 | 20 | 257 | 8.0 | 9.7 | 0.00 | 0.00 | 0.00 | 45 | 1014.1 |
| 20260505221355 | 20 | 219 | 8.0 | 9.7 | 0.00 | 0.00 | 0.00 | 45 | 1014.1 |
| 20260505220853 | 21 | 276 | 1.6 | 1.6 | 0.00 | 0.00 | 0.00 | 45 | 1013.9 |
| 20260505220349 | 20 | 294 | 8.0 | 9.7 | 0.00 | 0.00 | 0.00 | 45 | 1013.9 |
| 20260505215847 | 20 | 261 | 4.8 | 6.4 | 0.00 | 0.00 | 0.00 | 45 | 1014.0 |
| 20260505215345 | 21 | 280 | 8.0 | 9.7 | 0.00 | 0.00 | 0.00 | 44 | 1014.3 |
| 20260505214843 | 21 | 5 | 3.2 | 3.2 | 0.00 | 0.00 | 0.00 | 42 | 1014.1 |
| 20260505214340 | 20 | 298 | 3.2 | 3.2 | 0.00 | 0.00 | 0.00 | 43 | 1014.2 |
| 20260505213837 | 20 | 240 | 3.2 | 6.4 | 0.00 | 0.00 | 0.00 | 45 | 1014.1 |
| 20260505213335 | 20 | 253 | 8.0 | 9.7 | 0.00 | 0.00 | 0.00 | 44 | 1014.4 |
| 20260505212831 | 20 | 248 | 8.0 | 9.7 | 0.00 | 0.00 | 0.00 | 45 | 1014.2 |
| 20260505212328 | 20 | 273 | 6.4 | 9.7 | 0.00 | 0.00 | 0.00 | 43 | 1014.2 |
| 20260505211824 | 19 | 265 | 6.4 | 8.0 | 0.00 | 0.00 | 0.00 | 45 | 1014.1 |
| 20260505211322 | 20 | 280 | 9.7 | 12.9 | 0.00 | 0.00 | 0.00 | 44 | 1014.3 |
| 20260505210818 | 20 | 273 | 9.7 | 11.3 | 0.00 | 0.00 | 0.00 | 41 | 1014.1 |
| 20260505210315 | 20 | 289 | 8.0 | 9.7 | 0.00 | 0.00 | 0.00 | 42 | 1014.1 |
| 20260505205812 | 20 | 125 | 1.6 | 1.6 | 0.00 | 0.00 | 0.00 | 42 | 1014.4 |
| 20260505205310 | 20 | 265 | 11.3 | 11.3 | 0.00 | 0.00 | 0.00 | 43 | 1014.4 |
| 20260505204807 | 20 | 279 | 4.8 | 6.4 | 0.00 | 0.00 | 0.00 | 44 | 1014.4 |
| 20260505204305 | 20 | 245 | 4.8 | 8.0 | 0.00 | 0.00 | 0.00 | 43 | 1014.2 |
| 20260505203802 | 19 | 266 | 6.4 | 8.0 | 0.00 | 0.00 | 0.00 | 43 | 1014.4 |
| 20260505203258 | 18 | 279 | 6.4 | 8.0 | 0.00 | 0.00 | 0.00 | 43 | 1014.4 |
| 20260505202754 | 18 | 236 | 4.8 | 6.4 | 0.00 | 0.00 | 0.00 | 44 | 1014.4 |
| 20260505202251 | 19 | 278 | 9.7 | 11.3 | 0.00 | 0.00 | 0.00 | 44 | 1014.3 |
| 20260505201747 | 20 | 249 | 9.7 | 11.3 | 0.00 | 0.00 | 0.00 | 43 | 1014.4 |
| 20260505201245 | 20 | 226 | 3.2 | 6.4 | 0.00 | 0.00 | 0.00 | 44 | 1014.4 |
| 20260505200743 | 20 | 225 | 4.8 | 6.4 | 0.00 | 0.00 | 0.00 | 45 | 1014.3 |
| 20260505200240 | 19 | 253 | 3.2 | 6.4 | 0.00 | 0.00 | 0.00 | 48 | 1014.4 |